Norfolk, VA

11:33 AM EDT on March 23, 2017 (GMT -0400)
Norfolk International

Weather History for KORF - November, 2012

Change the Weather History Date:

Monday, November 5, 2012

  Actual Average Record
Temperature  
Mean Temperature 46 °F 56 °F  
Max Temperature 50 °F 64 °F 84 °F (2003)
Min Temperature 42 °F 48 °F 30 °F (1966)
Degree Days  
Heating Degree Days 19 9  
Month to date heating degree days 86 44  
Since 1 July heating degree days 228 201  
Cooling Degree Days 0 0  
Month to date cooling degree days 0 1  
Year to date cooling degree days 1850 1621  
Moisture  
Dew Point 33 °F    
Average Humidity 61    
Maximum Humidity 70    
Minimum Humidity 52    
Precipitation  
Precipitation 0.00 in 0.11 in 1.24 in (1973)
Month to date precipitation T 0.56  
Year to date precipitation 42.93 40.68  
Snow  
Snow 0.00 in 0.00 in 0.00 in (2002)
Month to date snowfall 0.0 0.0  
Since 1 July snowfall 0.0 0.0  
Snow Depth 0.00 in    
Sea Level Pressure  
Sea Level Pressure 30.07 in    
Wind  
Wind Speed 10 mph (North)    
Max Wind Speed 17 mph    
Max Gust Speed 23 mph    
Visibility 10 miles    
Events      
T = Trace of Precipitation, MM = Missing Value Source: NWS Daily Summary

Daily Weather History Graph

Daily Weather History Graph

Search for Another Location

Airport or City:

Trip Planner

Search our weather history database for the weather conditions in past years. The results will help you decide how hot, cold, wet, or windy it might be!

Date:

Astronomy

Nov. 05, 2012 Rise Set
Actual Time 6:33 AM EST 5:03 PM EST
Civil Twilight 6:06 AM EST 5:30 PM EST
Nautical Twilight 5:35 AM EST 6:00 PM EST
Astronomical Twilight 5:04 AM EST 6:31 PM EST
Moon 10:38 PM EST (11/5) 11:51 AM EST (11/5)
Length of Visible Light 11h 24m
Length of Day
10h 29m
Waning Gibbous, 63% of the Moon is Illuminated
Nov 5
Waning Gibbous
Nov 6
Last Quarter
Nov 13
New
Nov 20
First Quarter
Nov 28
Full

Hourly Weather History & Observations

Time (EST) Temp. Windchill Dew Point Humidity Pressure Visibility Wind Dir Wind Speed Gust Speed Precip Events Conditions
12:51 AM 46.9 °F - 36.0 °F 66% 30.01 in 10.0 mi NNE 11.5 mph - N/A   Mostly Cloudy
1:51 AM 44.1 °F 36.8 °F 33.1 °F 65% 30.01 in 10.0 mi NNE 16.1 mph 21.9 mph N/A   Scattered Clouds
2:51 AM 45.0 °F 38.2 °F 35.1 °F 68% 30.00 in 10.0 mi North 15.0 mph 19.6 mph N/A   Clear
3:44 AM 44.6 °F 38.8 °F 35.6 °F 71% 30.00 in 10.0 mi North 11.5 mph - N/A   Mostly Cloudy
3:51 AM 45.0 °F 40.1 °F 35.1 °F 68% 30.01 in 10.0 mi North 9.2 mph - N/A   Mostly Cloudy
4:41 AM 44.6 °F 40.2 °F 32.0 °F 61% 30.03 in 10.0 mi NNW 8.1 mph 17.3 mph N/A   Scattered Clouds
4:51 AM 44.1 °F 39.5 °F 33.1 °F 65% 30.03 in 10.0 mi NNW 8.1 mph - N/A   Partly Cloudy
5:51 AM 43.0 °F 40.3 °F 33.1 °F 68% 30.04 in 10.0 mi NW 4.6 mph - N/A   Clear
6:51 AM 43.0 °F 38.8 °F 33.1 °F 68% 30.05 in 10.0 mi NW 6.9 mph - N/A   Clear
7:51 AM 44.1 °F 39.0 °F 33.1 °F 65% 30.07 in 10.0 mi NNW 9.2 mph - N/A   Clear
8:51 AM 45.0 °F 39.3 °F 33.1 °F 63% 30.08 in 10.0 mi North 11.5 mph 17.3 mph N/A   Clear
9:51 AM 46.9 °F - 33.1 °F 59% 30.08 in 10.0 mi North 10.4 mph - N/A   Clear
10:51 AM 48.0 °F - 32.0 °F 54% 30.09 in 10.0 mi North 10.4 mph - N/A   Clear
11:51 AM 48.0 °F - 33.1 °F 56% 30.06 in 10.0 mi North 10.4 mph 17.3 mph N/A   Partly Cloudy
12:51 PM 50.0 °F - 33.1 °F 52% 30.05 in 10.0 mi North 13.8 mph 19.6 mph N/A   Mostly Cloudy
1:51 PM 48.9 °F - 32.0 °F 52% 30.05 in 10.0 mi North 13.8 mph - N/A   Mostly Cloudy
2:51 PM 48.0 °F - 32.0 °F 54% 30.06 in 10.0 mi NNE 9.2 mph - N/A   Clear
3:51 PM 46.9 °F - 32.0 °F 56% 30.06 in 10.0 mi NNE 9.2 mph - N/A   Partly Cloudy
4:51 PM 45.0 °F 41.8 °F 33.1 °F 63% 30.07 in 10.0 mi North 5.8 mph - N/A   Clear
5:51 PM 45.0 °F 41.2 °F 33.1 °F 63% 30.08 in 10.0 mi NNE 6.9 mph - N/A   Clear
6:51 PM 44.1 °F 39.0 °F 35.1 °F 71% 30.10 in 10.0 mi NE 9.2 mph - N/A   Partly Cloudy
7:51 PM 44.1 °F 39.5 °F 34.0 °F 68% 30.12 in 10.0 mi NE 8.1 mph - N/A   Scattered Clouds
8:51 PM 44.1 °F 38.6 °F 33.1 °F 65% 30.13 in 10.0 mi NE 10.4 mph - N/A   Partly Cloudy
9:51 PM 44.1 °F 37.7 °F 30.9 °F 60% 30.14 in 10.0 mi NE 12.7 mph - N/A   Partly Cloudy
10:51 PM 44.1 °F 37.4 °F 30.0 °F 58% 30.13 in 10.0 mi NE 13.8 mph - N/A   Clear
11:51 PM 44.1 °F 37.4 °F 30.0 °F 58% 30.13 in 10.0 mi NE 13.8 mph - N/A   Clear